Theta_e
323 323 323 322 322 322 320 318 317 317 318 318 319 319 320 322 321 323 324 325 326 327 327 327 327 326 326 326 326 325 325 324 324 324 323 322 323 322 322 322 321 321
322 321 320 321 320 318 318 318 317 317 318 318 319 319 319 318 320 321 323 323 324 325 327 327 327 326 326 326 325 325 324 324 323 323 323 322 321 321 321 321 321 321
321 320 320 319 320 318 316 315 316 317 318 318 318 318 317 316 318 319 322 322 323 325 326 326 326 326 326 326 325 324 323 323 323 323 321 321 321 321 321 321 321 321
319 320 320 319 318 317 315 315 315 316 315 316 316 316 317 317 317 318 319 316 323 324 325 325 325 326 325 325 325 324 324 323 323 323 322 321 320 320 319 320 320 320
318 318 318 318 317 316 315 315 316 316 315 316 314 314 313 315 315 316 317 319 321 323 324 324 325 325 324 324 324 323 323 323 324 323 322 320 319 317 317 317 318 317
314 316 316 317 317 316 315 316 316 315 315 313 314 312 314 314 315 314 314 315 317 319 321 322 323 323 324 323 323 323 322 321 322 321 320 319 315 314 316 315 315 314
312 312 313 314 314 314 315 315 314 312 314 315 310 313 312 312 313 313 313 314 316 317 319 320 320 321 321 321 320 320 318 316 313 315 315 311 311 312 311 313 313 315
310 309 311 310 310 310 311 312 312 312 311 308 309 311 309 311 310 311 310 312 314 315 315 316 317 319 318 319 318 318 318 317 314 313 312 311 309 309 308 311 314 315
305 304 304 304 307 307 308 309 308 306 305 307 307 305 301 306 307 307 308 309 310 311 313 313 315 315 315 315 315 315 315 315 316 314 313 311 309 309 311 310 310 310
300 299 299 301 304 305 306 305 304 303 299 302 303 299 301 300 303 304 304 305 306 307 308 309 311 311 311 311 315 314 314 314 311 309 309 309 310 310 310 309 310 309
295 296 300 300 303 302 302 299 297 296 295 299 298 298 300 299 298 299 301 303 306 307 309 308 308 310 312 311 309 308 308 308 307 307 307 307 308 309 304 308 308 307
295 296 299 301 300 299 298 295 294 295 295 295 298 305 298 297 300 298 301 303 303 306 306 307 305 303 304 305 303 302 301 302 302 303 304 306 306 306 307 307 307 307
295 296 297 297 296 296 294 294 295 294 296 298 294 298 298 298 296 298 296 298 299 300 300 301 302 300 300 301 302 302 302 302 302 301 302 302 303 304 304 303 304 304
295 293 293 293 293 293 294 294 294 293 295 294 293 298 297 296 297 298 296 295 296 298 298 296 297 298 298 299 300 301 299 299 299 300 299 299 298 299 299 299 299 300
290 291 293 292 292 294 295 296 296 295 293 292 292 293 293 294 295 295 295 294 293 293 294 294 297 299 298 298 297 296 297 298 299 298 297 298 297 294 293 295 295 295
291 292 293 293 294 296 295 294 294 293 293 292 293 292 292 291 291 292 295 295 295 293 292 292 295 296 293 294 295 297 296 297 296 295 295 295 294 293 292 291 293 292
293 293 294 294 295 295 293 293 294 292 291 291 291 291 292 291 290 293 292 291 293 293 292 293 294 295 293 295 295 295 295 295 296 295 293 291 291 291 292 291 290 292
295 295 294 294 293 294 293 292 291 290 291 291 291 290 290 290 291 293 294 293 293 292 293 293 293 292 294 295 295 295 294 294 294 294 293 292 290 290 289 290 290 290
295 295 294 293 293 293 292 291 290 290 290 290 291 291 289 290 292 292 292 290 291 292 292 291 290 291 293 294 294 295 295 293 292 293 291 290 290 289 290 290 289 289
294 294 293 293 292 291 291 291 290 291 290 290 290 289 290 290 290 290 290 290 290 292 292 290 290 290 293 294 294 294 294 294 293 291 290 290 289 289 289 289 288 288
294 293 292 292 291 291 291 291 291 290 290 290 290 290 290 290 290 290 290 289 289 289 289 290 290 291 293 293 293 294 294 294 291 291 290 289 288 289 289 288 288 289
293 292 292 291 291 290 290 291 290 291 290 289 289 289 289 289 289 289 289 289 288 288 289 290 290 291 292 292 293 294 295 291 289 289 289 288 288 288 287 287 287 288
293 292 292 291 291 290 290 290 290 290 290 289 289 289 289 289 289 288 289 289 288 288 289 289 289 290 291 291 292 294 292 289 289 288 289 289 288 287 288 287 288 288
293 292 291 291 290 290 290 291 290 290 290 289 290 289 289 289 289 288 287 288 288 288 289 289 289 288 290 291 292 293 291 289 289 289 287 288 287 286 286 286 286 286
293 292 292 291 290 291 291 290 290 290 290 288 290 290 289 289 288 288 287 287 287 288 287 288 288 288 289 291 292 292 290 289 288 288 288 287 287 285 284 284 284 285
292 291 291 290 290 290 290 290 290 290 289 289 289 290 290 289 288 288 287 287 287 287 287 288 288 288 287 290 291 292 291 288 288 288 288 287 286 286 285 284 283 283
Wind_Speed
13 11 12 11 12 10 8 8 7 8 8 7 9 9 9 9 8 9 10 10 10 10 10 10 10 10 10 10 10 9 9 10 9 6 6 7 8 10 11 11 11 10
14 12 11 9 9 7 7 7 7 8 8 9 9 8 8 6 8 9 9 10 10 11 10 10 10 11 11 10 10 10 9 10 11 8 10 12 10 8 9 10 10 11
11 10 11 12 12 9 7 6 7 8 9 9 8 8 6 7 8 8 9 9 10 10 11 10 10 10 11 11 11 11 9 8 10 11 10 9 9 9 8 8 9 11
11 11 11 11 9 8 6 7 8 8 7 8 9 8 8 7 8 8 8 9 9 10 9 10 11 10 10 10 9 8 11 10 8 8 11 11 11 9 6 6 7 8
11 10 9 8 7 7 7 9 10 9 9 9 6 7 7 7 7 8 8 9 9 10 9 10 10 10 9 9 9 8 7 9 10 8 9 9 6 8 8 7 7 8
6 7 8 9 9 9 9 11 10 9 9 7 9 7 8 8 8 9 8 8 8 9 9 9 9 8 9 9 9 9 7 7 9 10 10 9 6 4 4 5 6 7
8 7 9 8 8 9 10 10 8 8 9 9 5 9 8 8 8 8 8 9 9 9 9 9 8 8 7 6 7 7 7 6 4 5 6 5 4 5 5 6 7 9
9 7 8 7 8 7 9 9 9 9 8 6 8 8 7 8 8 7 7 8 8 8 7 7 7 7 7 7 8 9 9 8 6 7 7 6 5 6 4 5 7 9
7 7 6 6 8 8 9 10 8 6 6 8 8 6 5 6 7 7 7 7 6 6 6 6 7 7 6 6 7 7 7 7 8 8 8 8 6 6 7 7 7 8
7 6 6 7 9 9 10 8 6 5 4 5 5 4 5 5 5 5 5 5 6 5 5 5 5 6 6 6 7 7 8 8 6 6 6 6 7 6 6 7 8 7
6 6 7 8 9 7 7 5 4 3 3 4 4 4 5 4 4 4 4 5 6 6 6 5 5 5 6 6 6 5 6 5 5 5 4 5 5 6 6 6 5 6
7 7 9 10 8 5 5 4 3 4 4 4 5 5 4 4 4 4 4 5 5 6 5 6 5 4 5 5 4 4 4 4 4 4 4 4 5 5 6 5 6 6
8 8 7 5 4 4 3 4 4 4 4 4 4 4 4 4 4 3 3 3 4 3 3 4 4 4 4 4 4 4 4 4 4 5 5 6 5 4 4 4 4 5
6 4 4 3 3 3 4 4 4 4 5 4 4 4 4 4 3 3 3 3 4 4 4 4 3 4 4 4 4 5 6 5 4 5 5 4 4 4 3 3 3 3
4 4 4 4 4 4 5 5 5 4 4 4 3 3 3 3 3 3 3 3 3 3 3 3 4 4 4 5 5 3 2 3 5 5 4 4 4 4 4 4 4 3
5 4 5 4 5 6 6 5 5 4 4 4 3 3 2 2 3 4 4 4 4 3 3 3 4 3 4 5 5 3 3 3 3 3 4 4 5 5 4 4 3 3
5 5 6 6 6 6 5 6 5 4 4 4 4 4 4 4 4 5 4 4 4 4 4 4 4 4 6 6 6 6 4 4 4 4 3 4 4 4 4 4 2 0
6 6 7 7 7 8 6 5 4 4 4 5 5 5 5 4 6 6 5 5 5 5 5 5 5 6 6 6 7 7 7 4 4 3 3 3 3 3 3 3 2 0
7 7 7 7 8 6 5 4 5 5 6 6 7 5 4 5 6 6 6 5 6 6 6 6 5 6 7 8 7 6 7 6 4 3 3 3 2 2 2 1 1 1
7 8 8 8 6 5 5 6 6 7 6 5 5 5 6 6 5 6 5 6 6 7 6 5 5 7 8 8 7 7 7 6 3 3 4 3 4 3 2 2 2 3
9 9 9 8 7 7 7 7 8 6 7 7 6 7 7 7 6 6 6 5 6 5 5 5 6 7 8 7 6 6 7 6 3 3 3 3 3 3 3 4 4 4
10 10 9 8 8 8 9 9 9 9 9 7 6 5 4 4 5 4 6 5 5 4 4 5 5 7 7 7 8 8 8 5 4 4 3 3 3 3 3 3 4 5
11 11 10 10 10 10 11 11 11 11 8 6 7 7 6 6 6 5 5 6 5 5 5 4 4 5 7 7 8 9 8 5 5 4 4 3 3 3 4 4 4 4
12 12 11 11 11 13 14 11 9 6 8 7 9 8 8 7 6 5 4 4 5 6 6 5 4 5 7 7 8 10 8 6 5 5 4 4 3 2 2 2 2 5
12 12 12 12 13 14 12 11 12 11 7 7 6 6 6 6 5 5 4 4 4 5 6 6 4 5 7 7 9 10 7 5 5 5 4 4 4 3 2 2 3 4
11 12 12 13 14 11 10 11 8 7 8 9 7 6 6 6 5 5 6 5 5 5 5 5 5 4 4 7 7 9 9 5 4 5 5 5 4 4 4 2 3 3
Wind_Direction
216 211 217 217 224 222 212 207 202 203 206 203 213 217 213 217 206 209 214 216 219 224 226 226 225 226 229 232 233 233 231 233 235 235 248 256 247 242 242 240 232 229
214 212 216 219 226 215 213 198 196 199 209 210 216 216 216 206 210 206 213 217 218 223 224 225 226 226 227 228 229 231 230 225 228 226 239 245 256 250 242 236 230 227
213 211 213 215 218 213 204 192 194 205 211 215 215 214 211 204 210 210 214 214 219 221 222 224 226 225 226 225 223 222 224 228 229 225 226 237 242 244 245 245 247 242
213 211 212 216 213 208 192 193 210 213 212 217 214 208 207 209 208 214 216 216 221 223 223 224 225 227 226 226 226 227 226 226 225 220 223 228 228 226 233 236 239 247
208 209 209 210 207 203 193 205 214 212 213 218 212 207 211 212 212 216 215 217 219 224 223 223 223 225 224 228 230 236 231 233 229 228 235 236 221 216 226 220 226 233
207 202 202 204 204 199 205 213 215 209 215 215 215 205 212 211 215 215 213 217 217 221 225 225 224 225 222 223 224 227 234 237 231 225 227 225 222 223 232 224 234 240
204 197 203 203 204 203 210 216 213 211 215 215 202 217 207 215 217 216 214 216 216 218 221 222 223 227 220 222 231 235 236 237 232 224 229 230 214 230 230 231 235 242
205 202 204 199 202 201 212 212 213 213 211 203 215 219 203 216 216 215 215 215 217 219 220 222 224 227 222 220 224 228 237 232 227 225 224 227 223 238 249 248 244 244
198 201 192 196 199 206 214 214 214 213 202 209 216 216 213 217 216 212 213 212 214 218 217 219 222 222 219 220 226 229 236 236 230 228 228 228 225 230 234 239 241 240
199 191 187 199 205 210 213 213 207 211 197 210 209 199 206 223 221 215 215 210 212 215 215 217 220 220 220 219 225 226 235 241 237 225 221 223 229 239 240 235 235 241
201 191 200 206 213 209 214 200 201 191 171 195 182 195 203 193 207 204 205 207 210 210 209 213 219 219 225 229 230 231 226 225 222 225 230 236 242 246 252 251 251 242
203 198 209 211 209 207 200 179 177 180 179 193 186 187 190 189 187 190 191 203 206 212 206 208 209 213 221 228 221 206 207 212 221 229 238 239 240 237 238 240 241 246
203 207 205 203 195 180 155 159 171 172 171 187 188 177 183 199 206 196 209 187 210 182 191 197 190 180 191 205 211 213 213 218 230 232 233 234 235 242 251 255 249 249
202 187 177 165 150 148 164 170 165 172 182 179 170 189 204 211 211 206 227 194 213 201 204 192 191 189 198 207 211 215 208 211 220 236 241 248 252 248 250 257 254 248
167 156 143 147 157 163 170 174 176 175 168 163 173 196 195 200 199 200 204 220 215 199 206 197 198 208 205 207 211 221 201 224 226 231 242 261 266 259 247 237 233 228
160 157 163 160 170 178 181 180 181 183 189 202 210 203 202 204 195 203 199 205 208 214 206 198 211 214 210 211 205 207 208 225 241 244 236 233 240 251 256 228 217 212
164 172 168 184 187 184 184 185 190 188 203 224 229 221 217 214 207 210 210 208 208 204 210 216 220 209 200 200 209 213 206 203 208 230 227 234 237 247 260 270 266 183
175 171 184 192 185 196 189 186 177 185 207 208 204 204 211 202 209 215 215 220 221 222 219 214 219 213 196 195 199 204 198 194 196 209 209 222 243 246 268 283 284 326
180 186 193 194 202 192 179 172 181 189 198 198 204 204 194 195 209 205 212 207 201 206 218 216 215 205 198 199 196 194 197 192 193 188 182 211 218 235 245 275 358 5
187 191 199 202 187 181 176 181 188 201 198 198 194 195 197 205 208 211 209 200 201 204 210 208 208 204 197 197 195 193 195 187 194 185 182 180 190 190 174 178 186 185
191 194 200 193 183 180 183 192 195 197 198 200 195 194 196 201 202 207 211 206 207 206 202 210 216 202 201 195 194 191 186 177 165 163 166 172 172 164 169 181 185 183
190 195 195 185 183 183 192 198 196 199 200 192 190 197 204 200 210 202 200 203 204 199 204 220 221 204 198 193 187 185 166 147 151 163 169 164 151 152 164 176 176 176
192 192 192 187 185 188 198 199 196 199 199 182 187 194 192 200 200 194 197 193 194 200 204 224 223 217 203 195 184 168 148 147 149 149 153 153 174 177 175 173 177 169
191 190 190 188 187 198 200 199 195 192 196 183 188 186 195 196 189 195 192 190 188 199 197 198 213 218 212 202 185 171 159 156 156 152 165 176 172 165 156 152 157 164
189 190 192 190 195 202 195 192 194 194 181 173 188 183 190 176 179 186 188 192 196 196 195 193 200 211 214 204 188 178 165 157 157 156 164 187 171 162 155 156 184 195
188 192 194 194 200 195 191 195 181 173 181 181 186 183 178 172 171 181 187 199 189 187 194 199 191 205 218 217 195 184 172 155 153 154 183 187 179 171 167 197 198 211